Location: China Garden
(38.4766°N, 119.4618°W)
Time: 06:43:27
(UTC+00:00)

Daily predictions for brighter satellites

Satellite Brightness Start Highest point End
(mag) Time Altitude Azimuth Time Altitude Azimuth Time Altitude Azimuth
ADEOS II 4.1 12:03:06 10° NW 12:04:39 11° WNW 12:06:13 10° WNW
SL-16 R/B 4.0 12:06:15 10° W 12:07:18 11° W 12:07:18 11° W
SL-08 R/B 4.5 12:03:10 10° NNW 12:09:17 65° W 12:15:28 10° S
H-2A R/B 2.4 12:05:54 10° S 12:09:46 39° W 12:13:38 10° NNW
Cosmos 1125 Rocket 3.5 12:05:02 10° SSW 12:10:10 70° WNW 12:15:26 10° NNE
FALCON 9 DEB 3.2 12:08:06 10° WNW 12:11:30 53° SW 12:14:51 10° SSE
USA 267 3.2 12:08:48 10° SE 12:15:21 76° SW 12:21:54 10° NW
Meteor 1-31 Rocket 4.4 12:14:49 10° NNE 12:18:24 36° E 12:21:56 10° SSE
Cosmos 1825 Rocket 3.6 12:15:24 10° NNW 12:19:38 53° W 12:23:49 10° S
Cosmos 2263 Rocket 3.5 12:18:12 11° WSW 12:22:20 23° NW 12:26:45 10° N
Aureole 3 4.4 12:17:34 10° SSW 12:22:25 55° WNW 12:28:36 10° N
Cosmos 1484 Rocket 3.9 12:19:02 10° NNE 12:22:35 43° E 12:26:07 10° S
Atlas Centaur 2 3.9 12:19:10 10° SW 12:26:01 37° SSE 12:33:36 10° E
Cosmos 1953 Rocket 3.6 12:22:11 10° NNW 12:26:39 71° W 12:31:05 10° S
Cosmos 494 Rocket 4.1 12:22:00 10° NNW 12:27:11 81° ENE 12:32:22 10° SSE
Delta 2 Rocket 3.6 12:25:29 11° WSW 12:28:57 50° S 12:33:00 10° E
Cosmos 1709 Rocket 4.3 12:24:06 10° N 12:30:17 73° E 12:36:23 10° SSE
Hubble Space Telescope 3.3 12:33:42 10° SSE 12:34:03 10° SSE 12:34:25 10° SSE
CZ-4B R/B 1.3 12:33:59 10° S 12:37:16 61° W 12:40:29 10° NNW
SeaSat 1 3.5 12:33:47 10° N 12:38:05 31° NW 12:42:23 10° WSW
Cosmos 2315 Rocket 4.1 12:32:07 10° S 12:38:25 88° E 12:44:49 10° N
ERS-2 3.6 12:37:04 10° SW 12:39:42 19° W 12:42:21 10° NW
